COSMOS 2251 DEB, 34388

Orbit data source: Space-Track

COSMOS 2251 DEB, 34388 is space debris in LEO originally from a launch on Wed, 16 Jun 1993 UTC launched from the Plesetsk Missile And Space Complex (PKMTR). The debris from Iridium 33, an American commercial communications satellite, has been tracked extensively since its accidental collision with the defunct Russian satellite Cosmos 2251 in 2009. This event, occurring at high speed in low Earth orbit (LEO), generated thousands of pieces of space debris, significantly increasing the risk of further collisions. The Iridium 33 debris cloud has impacted space traffic management and orbital debris mitigation strategies, making it a subject of ongoing study in space situational awareness.

Loading next visibility...
Identifier
34388, 1993-036QD
Orbit
LEO
Country
Flag of CISCIS
Related business
Manufacturer
Unknown
Mission
Spacecraft
Bus & Motor
Unknown
Mass
Unknown
Launch date (UTC)
1993-06-16 (33 years ago)
Launch vehicle
Unknown
Launch site
Plesetsk Missile And Space Complex (PKMTR)
Object type
Payload
Rocket body
Debris
Shape & HBR
Unknown shape, 0.1 m
Radar Cross Section
Medium (>0.1 m² and <1 m²)

Expand to show TLE details & history
Last TLE update: 2 days ago

TLE from 2 days ago
0 COSMOS 2251 DEB
1 34388U 93036QD  26206.58613722  .00002138  00000-0  55270-3 0  9993
2 34388  74.0383 160.9514 0012455 165.1595 310.5809 14.50488050914148
Epoch: 2026-07-25T14:04Z
TLE epoch observation values (Epoch: 2026-07-25T14:04:02.255Z)
Latitude
60.19864°
Longitude
156.86253°
Altitude
728.201 km
Speed
7.5 km/s
True Right ascension
20h 44m 40s
True Declination
60° 02' 58"
Sunlit
Object was in daylight at epoch
Visualization orbit readout
Latitude
Unknown
Longitude
Unknown
Altitude
Unknown
Speed
Unknown
Apparent Right ascension
Unknown
Apparent Declination
Unknown
Sunlit
N/A
Visualization observer readout
Local Sidereal Time
17:04:36
Azimuth
Unknown
Elevation
Unknown
Doppler factor
Unknown
Orbital elements
Apogee altitude
730.506 km
Perigee altitude
712.82 km
Semi-major axis
7,099.8 km
Eccentricity
0.00125
Inclination
74.0383°
RAAN
160.9514°
Arg. of periapsis
165.1595°
True anomaly
310.47239°
Mean anomaly
310.5809°
Eccentric anomaly
310.52666°
Mean motion
3.62806 °/min
Orbital period
99.23 mins
BSTAR
0.0005527

Documentation

Showing up to 5 results
|